Location: Bach
(50.6564°N, 7.9904°E)
Time: 01:26:33
(UTC+00:00)

Daily predictions for brighter satellites

Satellite Brightness Start Highest point End
(mag) Time Altitude Azimuth Time Altitude Azimuth Time Altitude Azimuth
STARLINK-1247 3.0 00:00:18 10° WNW 00:03:26 73° NNE 00:06:33 10° E
STARLINK-1227 3.0 00:00:46 10° WNW 00:03:52 73° NNE 00:06:58 10° E
ATLAS CENTAUR R/B 2.5 00:02:13 10° NW 00:04:15 36° NNE 00:07:43 10° E
STARLINK-1226 3.0 00:01:37 10° WNW 00:04:45 74° NNE 00:07:52 10° ESE
STARLINK-1215 3.0 00:02:34 10° WNW 00:05:41 74° NNE 00:08:49 10° ESE
STARLINK-1225 3.9 00:01:45 10° W 00:05:54 68° N 00:10:02 10° ENE
Cosmos 292 Rocket 4.5 00:03:39 22° SW 00:06:29 49° WNW 00:11:12 10° NNE
STARLINK-1217 3.0 00:04:20 10° WNW 00:07:27 75° NNE 00:10:35 10° ESE
STARLINK-1229 2.9 00:05:15 10° WNW 00:08:23 76° NNE 00:11:31 10° ESE
STARLINK-1271 4.0 00:04:41 10° WNW 00:08:49 65° N 00:12:57 10° E
STARLINK-1270 2.9 00:06:07 10° WNW 00:09:15 77° NNE 00:12:23 10° ESE
Cosmos 1726 3.3 00:06:55 10° NNW 00:10:10 29° W 00:10:54 27° WSW
STARLINK-1230 4.0 00:06:45 10° W 00:10:53 66° N 00:15:01 10° ENE
GEOS 3 Rocket 3.6 00:07:39 22° SSE 00:11:04 69° SW 00:16:23 10° NW
STARLINK-1189 2.9 00:07:57 10° WNW 00:11:05 78° NNE 00:14:12 10° ESE
Cosmos 2058 Rocket 3.3 00:07:03 10° N 00:11:27 66° ENE 00:13:46 27° SSE
STARLINK-1188 2.9 00:08:50 10° WNW 00:11:58 79° NNE 00:15:06 10° ESE
STARLINK-1235 2.7 00:09:32 10° WNW 00:12:39 89° NNE 00:15:46 10° ESE
Meteor 1-29 3.0 00:09:19 10° NNE 00:12:43 64° ESE 00:13:32 45° SSE
STARLINK-1187 2.8 00:09:58 10° WNW 00:13:04 84° NNE 00:16:10 10° ESE
STARLINK-1154 4.0 00:09:40 10° WNW 00:13:48 66° N 00:17:57 10° E
Cosmos 2228 3.0 00:09:44 10° NNW 00:13:59 65° W 00:15:32 36° SSW
STARLINK-1191 2.8 00:11:19 10° WNW 00:14:26 80° NNE 00:17:32 10° ESE
COSMOS 2455 3.1 00:11:39 28° S 00:14:42 57° ESE 00:20:36 10° NE
SJ 16-02 3.8 00:11:33 10° N 00:14:58 21° NE 00:18:22 10° ESE
STARLINK-1221 2.8 00:12:11 10° WNW 00:15:18 81° NNE 00:18:25 10° ESE
STARLINK-1243 4.0 00:11:44 10° W 00:15:52 65° N 00:20:00 10° ENE
Cosmos 2263 4.5 00:12:25 22° SW 00:16:01 63° WNW 00:21:37 10° NNE
STARLINK-1222 2.8 00:13:05 10° WNW 00:16:11 82° NNE 00:19:18 10° ESE
STARLINK-1214 2.8 00:14:00 10° WNW 00:17:07 82° NNE 00:20:13 10° ESE
Cosmos 1953 3.8 00:15:09 10° NW 00:18:23 23° W 00:19:26 21° WSW
STARLINK-1197 4.0 00:14:39 10° WNW 00:18:48 67° N 00:22:56 10° E
Cosmos 1340 Rocket 4.0 00:16:35 10° NNW 00:20:06 29° W 00:21:08 26° WSW
SL-14 R/B 3.9 00:18:39 30° SSE 00:20:10 47° E 00:23:54 10° NNE
STARLINK-1236 4.0 00:16:44 10° W 00:20:51 64° N 00:24:59 10° ENE
IRAS Rocket 4.2 00:17:53 23° SSE 00:21:29 87° WSW 00:27:05 10° NNW
Cosmos 1300 3.0 00:19:26 10° N 00:23:14 61° ENE 00:25:04 28° SSE
STARLINK-1198 3.9 00:19:36 10° WNW 00:23:46 69° N 00:27:54 10° E
Okean 1-7 Rocket 3.8 00:22:03 30° S 00:24:07 66° E 00:28:36 10° NNE
Cosmos 1174 3.7 00:23:33 42° SSE 00:24:08 48° ESE 00:27:41 10° NE
Cosmos 921 Rocket 4.1 00:23:34 22° SE 00:25:28 33° E 00:29:19 10° NE
BREEZE M DEB (TANK) 3.0 00:26:49 31° ESE 00:26:49 31° ESE 00:28:42 10° ESE
COSMOS 2487 3.0 00:23:38 10° NW 00:26:53 38° WSW 00:27:18 37° SW
STARLINK-1199 3.9 00:24:38 10° WNW 00:28:48 70° NNE 00:32:56 10° E
STARLINK-1269 4.1 00:26:42 10° W 00:30:50 63° N 00:34:57 10° ENE
Cosmos 2219 4.0 00:26:19 10° NNW 00:31:53 51° NE 00:37:22 10° SE
STARLINK-1210 3.8 00:29:36 10° WNW 00:33:45 72° NNE 00:37:54 10° E
STARLINK-1200 4.1 00:31:43 10° W 00:35:51 62° N 00:39:58 10° ENE
Cosmos 1626 2.1 00:34:31 36° S 00:35:56 74° E 00:39:39 10° NNE
STARLINK-60 3.6 00:36:27 36° SSE 00:36:27 36° SSE 00:39:26 10° E
Cosmos 1606 Rocket 4.3 00:33:16 10° NNW 00:37:15 37° W 00:38:48 28° SW
Cosmos 1656 Rocket 4.0 00:33:51 21° SW 00:37:35 60° NW 00:43:08 10° NNE
STARLINK-1219 3.8 00:34:35 10° WNW 00:38:44 74° NNE 00:42:54 10° E
Nadezhda 1 Rocket 4.2 00:34:32 10° N 00:40:42 72° ENE 00:45:52 15° SSE
STARLINK-1192 4.1 00:36:43 10° W 00:40:51 62° N 00:44:58 10° E
FALCON 9 R/B 3.9 00:38:25 23° SSW 00:41:41 30° SSE 00:57:04 10° ESE
STARLINK-1211 3.7 00:39:33 10° WNW 00:43:43 76° NNE 00:47:52 10° ESE
STARLINK-1244 4.1 00:41:42 10° W 00:45:49 61° N 00:49:56 10° E
MOZ.5/SAFIR/RUBIN 5/SL-8 3.8 00:44:15 20° SSE 00:47:28 83° ENE 00:52:07 10° NNW
Cosmos 2297 Rocket 2.9 00:41:59 10° NNW 00:47:33 54° NE 00:53:06 10° SE
UNK 4.1 00:44:00 15° SSE 00:47:45 64° ENE 00:52:19 10° N
STARLINK-1245 3.7 00:44:33 10° WNW 00:48:43 79° NNE 00:52:53 10° ESE
Cosmos 1812 Rocket 4.3 00:46:15 10° N 00:50:39 51° ENE 00:54:29 13° SSE
STARLINK-1138 4.1 00:46:42 10° W 00:50:49 61° N 00:54:56 10° E
SL-4 R/B 2.7 00:49:12 27° SSW 00:51:29 49° SSE 00:56:03 10° ENE
STARLINK-1203 4.2 00:49:17 10° W 00:53:28 62° N 00:57:39 10° E
STARLINK-1233 3.7 00:49:32 10° WNW 00:53:42 81° NNE 00:57:51 10° ESE
Cosmos 1437 2.7 00:52:48 38° SSE 00:53:44 64° E 00:56:44 10° NNE
Cosmos 1674 4.1 00:53:21 20° WSW 00:54:56 27° WNW 00:58:12 10° N
STARLINK-1143 4.1 00:51:41 10° W 00:55:49 61° N 00:59:55 10° E
SL-19 R/B 4.2 00:51:05 10° NNE 00:56:27 79° WNW 01:00:03 23° SSW
STARLINK-1204 3.6 00:54:32 10° WNW 00:58:42 84° NNE 01:02:51 10° ESE
Cosmos 1777 Rocket 4.4 00:54:01 10° NW 00:59:00 46° WSW 01:01:54 23° SSW
ATLAS CENTAUR R/B 1.4 00:56:56 27° SW 00:59:17 88° SE 01:03:25 10° NE
Timation 2 Rocket 4.0 00:53:09 10° NW 00:59:26 61° WSW 01:04:30 15° S
STARLINK-1241 4.1 00:56:41 10° W 01:00:48 61° N 01:04:55 10° E
SL-16 R/B 2.5 00:56:01 13° SSE 01:01:35 88° WSW 01:07:48 10° NNW
BREEZE-M R/B 3.9 01:01:07 25° S 01:02:15 28° SSE 01:05:03 10° E
NOSS 3-4 (A) 3.6 00:57:31 17° SW 01:02:18 71° NW 01:08:48 10° NE
NOSS 3-4 (C) 3.6 00:57:37 17° SW 01:02:23 71° NW 01:08:55 10° NE
STARLINK-1238 3.6 00:59:29 10° WNW 01:03:39 87° NNE 01:07:48 10° ESE
Cosmos 1602 Rocket 3.9 01:01:58 20° SSE 01:04:46 57° E 01:09:01 10° NNE
STARLINK-29 3.8 01:04:34 30° S 01:05:08 33° SSE 01:08:03 10° E
Cosmos 1455 3.4 01:02:04 10° N 01:05:38 39° ENE 01:09:09 10° SE
STARLINK-1239 4.1 01:01:40 10° W 01:05:47 62° N 01:09:54 10° E
ATLAS 3B R/B 3.0 01:00:17 10° NW 01:06:41 45° WSW 01:12:43 13° S
STARLINK-1201 3.6 01:04:29 10° WNW 01:08:39 89° SSW 01:12:48 10° ESE
CENTAUR R/B 4.1 01:03:29 10° WNW 01:10:11 29° WSW 01:14:47 18° SSW
STARLINK-1240 4.1 01:06:40 10° WNW 01:10:48 62° N 01:14:54 10° E
GP-B 4.2 01:07:41 10° NNE 01:11:55 41° E 01:16:07 10° SSE
Meteor 2-1 Rocket 4.2 01:07:25 10° NNW 01:12:58 88° E 01:18:04 12° SSE
BREEZE-M DEB (TANK) 1.3 01:12:39 36° SW 01:13:19 49° SSE 01:15:33 10° E
STARLINK-1206 3.5 01:09:28 10° WNW 01:13:37 86° SSW 01:17:47 10° ESE
Cosmos-2242 4.2 01:11:10 10° N 01:15:13 40° ENE 01:19:13 10° SE
STARLINK-1216 4.1 01:11:39 10° WNW 01:15:47 63° N 01:19:54 10° E
Cosmos 1745 Rocket 4.0 01:12:45 19° SSW 01:17:17 83° W 01:23:27 10° N
STARLINK-1205 3.5 01:14:26 10° WNW 01:18:36 83° SSW 01:22:45 10° ESE
STARLINK-1237 4.1 01:16:39 10° WNW 01:20:47 64° N 01:24:54 10° E
RESURS DK-1 2.3 01:19:17 23° SW 01:21:46 82° WNW 01:25:56 10° NNE
Cosmos 2227 Rocket 2.3 01:17:31 10° NNW 01:23:14 81° ENE 01:28:55 10° SSE
Cosmos 1356 Rocket 3.7 01:19:15 10° NNW 01:23:16 51° W 01:25:49 21° SSW
STARLINK-1218 3.5 01:19:24 10° WNW 01:23:34 79° SSW 01:27:42 10° ESE
Meteor 1-24 Rocket 4.2 01:22:03 19° SW 01:25:36 45° WNW 01:30:49 10° N
STARLINK-1202 4.1 01:21:39 10° WNW 01:25:47 64° N 01:29:55 10° E
CZ-2D R/B 2.1 01:20:55 10° NNE 01:26:14 86° ESE 01:30:15 18° SSW
Helios 1B rocket 4.5 01:23:32 10° NNW 01:26:20 18° WNW 01:29:08 10° WSW
Cosmos 2369 Rocket 4.2 01:23:02 10° W 01:27:19 21° NW 01:31:34 10° NNE
Cosmos 1697 Rocket 4.3 01:23:46 10° SSE 01:28:27 27° ESE 01:33:08 10° NE
STARLINK-1254 3.5 01:24:24 10° WNW 01:28:33 75° SSW 01:32:41 10° ESE
ADEOS II 3.1 01:23:52 10° NNE 01:28:50 40° E 01:33:45 10° SSE
ATLAS 2AS CENTAUR R/B 3.5 01:23:31 10° WSW 01:31:26 58° NW 01:39:10 10° NE
CZ-4C R/B 4.1 01:30:46 20° SSW 01:33:10 39° W 01:37:17 10° NNW
STARLINK-1231 3.5 01:29:24 10° WNW 01:33:33 72° SSW 01:37:40 10° ESE
STARLINK-1228 4.0 01:32:12 10° W 01:35:04 26° SW 01:37:55 10° SSE
STARLINK-1246 4.0 01:31:37 10° WNW 01:35:45 67° N 01:39:53 10° E
Resurs 1-4 Rocket 2.1 01:30:41 10° NNE 01:35:59 79° WNW 01:40:11 17° SSW
STARLINK-1234 3.9 01:33:38 10° W 01:36:17 25° SW 01:37:02 22° SSW
STARLINK-1212 3.6 01:34:54 10° W 01:37:42 31° SW 01:40:29 10° SSE
STARLINK-1105 3.6 01:35:23 10° W 01:38:09 30° SW 01:40:56 10° SSE
STARLINK-1232 3.5 01:34:23 10° WNW 01:38:31 68° SSW 01:42:38 10° ESE
STARLINK-1209 4.0 01:35:56 10° W 01:38:32 23° SW 01:38:42 23° SSW
STARLINK-1247 3.6 01:36:17 10° W 01:39:05 30° SW 01:41:52 10° SSE
STARLINK-1227 3.6 01:36:46 10° W 01:39:31 30° SW 01:42:16 10° SSE
STARLINK-1226 3.6 01:37:37 10° W 01:40:23 29° SW 01:43:09 10° SSE
USA 81 4.0 01:36:19 15° S 01:40:42 82° W 01:46:02 10° N
STARLINK-1224 4.0 01:36:36 10° WNW 01:40:45 68° N 01:44:53 10° E
ARIANE 5 R/B 4.0 01:36:21 10° NNE 01:40:54 32° E 01:45:22 10° SSE
STARLINK-1215 3.7 01:38:33 10° W 01:41:20 29° SW 01:44:06 10° SSE
STARLINK-52 3.2 01:39:41 22° SW 01:41:28 52° SSE 01:44:37 10° ENE
STARLINK-1217 3.7 01:40:20 10° W 01:43:05 28° SW 01:45:49 10° SSE
Cosmos 1758 Rocket 3.8 01:39:23 13° S 01:43:08 68° E 01:47:29 10° NNE
NPP 3.7 01:38:00 10° NNE 01:43:25 80° WNW 01:47:57 15° SSW
STARLINK-1208 3.5 01:39:21 10° WNW 01:43:28 64° SSW 01:47:34 10° SE
STARLINK-1229 3.7 01:41:16 10° W 01:44:00 28° SW 01:46:44 10° SSE
STARLINK-1270 3.7 01:42:08 10° W 01:44:52 28° SW 01:47:35 10° SSE
STARLINK-1225 3.9 01:41:36 10° WNW 01:45:45 70° NNE 01:49:53 10° E
H-2A R/B 3.8 01:41:53 10° SE 01:45:48 34° ENE 01:49:49 10° N
STARLINK-1189 3.8 01:44:00 10° W 01:46:42 27° SW 01:49:24 10° SSE
STARLINK-1188 3.8 01:44:53 10° W 01:47:35 26° SW 01:50:16 10° SSE
STARLINK-1235 4.1 01:45:42 10° W 01:48:10 22° SW 01:50:37 10° SSE
Cosmos 1898 Rocket 3.5 01:43:03 10° NNW 01:48:25 80° WSW 01:53:44 10° SSE
STARLINK-1271 3.6 01:44:21 10° WNW 01:48:27 61° SSW 01:52:32 10° SE
STARLINK-1187 4.0 01:46:04 10° W 01:48:37 23° SW 01:51:10 10° SSE
STARLINK-1191 3.9 01:47:23 10° W 01:50:01 25° SW 01:52:38 10° SSE
Lacrosse 4 Rocket 2.5 01:46:00 10° NNW 01:50:17 50° NE 01:54:26 10° SE
STARLINK-1230 3.9 01:46:34 10° WNW 01:50:44 71° NNE 01:54:52 10° E
STARLINK-1221 3.9 01:48:15 10° W 01:50:53 25° SW 01:53:30 10° SSE
Starlink 7 placeholder 2.2 01:49:43 19° W 01:50:55 57° NNW 01:52:53 10° ENE
Meteor 1-21 Rocket 4.2 01:46:48 14° SSW 01:51:43 83° WNW 01:57:27 10° NNE
STARLINK-1222 3.9 01:49:10 10° W 01:51:46 25° SW 01:54:22 10° SSE
STARLINK-1214 3.9 01:50:06 10° W 01:52:40 24° SW 01:55:15 10° SSE
Cosmos 1656 3.9 01:48:20 14° SSW 01:53:16 68° ESE 01:58:52 10° NNE
STARLINK-1154 3.6 01:49:20 10° WNW 01:53:25 57° SSW 01:57:29 10° SE
Cosmos 2285 Rocket 4.2 01:47:26 10° NNW 01:53:53 81° ENE 02:00:14 10° SSE
SJ 16-02 1.4 01:49:33 10° NNW 01:53:56 59° WSW 01:58:17 10° S
CZ-4C R/B 3.3 01:50:45 10° S 01:55:14 33° ESE 02:00:27 10° NE
STARLINK-1243 3.9 01:51:34 10° WNW 01:55:43 73° NNE 01:59:52 10° E
Cosmos 2084 3.5 01:52:18 16° SW 01:55:52 88° SE 02:00:22 10° NE
Cosmos 468 Rocket 4.1 01:52:22 13° SSW 01:56:58 70° ESE 02:02:05 10° NNE
STARLINK-1197 3.7 01:54:19 10° WNW 01:58:23 54° SSW 02:02:25 10° SE
Cosmos 1937 Rocket 3.5 01:53:26 10° NNW 01:58:41 88° WSW 02:03:58 10° SSE
Cosmos 1953 Rocket 4.1 01:55:05 10° S 01:59:28 58° E 02:03:51 10° NNE
STARLINK-1236 3.8 01:56:33 10° WNW 02:00:42 76° NNE 02:04:51 10° E
Meteor 2-10 Rocket 3.8 01:55:30 10° NNW 02:00:44 54° W 02:05:45 10° S
COSMOS 2455 3.9 01:55:17 10° WSW 02:00:55 39° NW 02:06:34 10° NNE
STARLINK-1198 3.7 01:59:17 10° WNW 02:03:19 51° SSW 02:07:19 10° SE
Cosmos 921 Rocket 4.2 02:00:21 12° WSW 02:03:45 31° WNW 02:07:38 10° N
Cosmos 1709 Rocket 4.1 02:01:48 12° SSW 02:07:28 64° WNW 02:13:34 10° N
STARLINK-1199 3.8 02:04:19 10° WNW 02:08:19 48° SSW 02:12:17 10° SE
STARLINK-1269 3.7 02:06:30 10° WNW 02:10:39 80° NNE 02:14:49 10° ESE
STARLINK-60 3.2 02:09:17 10° W 02:12:29 67° NNW 02:15:42 10° ENE
STARLINK-1210 3.9 02:09:17 10° WNW 02:13:15 45° SSW 02:17:12 10° SE
STARLINK-1200 3.7 02:11:30 10° WNW 02:15:40 83° NNE 02:19:49 10° ESE
Cosmos 2219 3.9 02:10:50 10° NW 02:15:50 33° WSW 02:20:46 10° SSW
STARLINK-1320 3.6 02:14:52 13° SW 02:17:18 39° SSE 02:20:15 10° ENE
STARLINK-1322 3.6 02:15:11 13° SW 02:17:39 39° SSE 02:20:36 10° ENE
STARLINK-1324 3.6 02:15:32 13° SW 02:18:00 39° SSE 02:20:58 10° ENE
STARLINK-1219 4.0 02:14:17 10° WNW 02:18:12 42° SSW 02:22:07 10° SE
STARLINK-1294 3.6 02:15:47 13° SW 02:18:17 40° SSE 02:21:16 10° ENE
STARLINK-1261 3.6 02:16:09 13° SW 02:18:39 40° SSE 02:21:37 10° ENE
STARLINK-1325 3.6 02:16:30 13° SW 02:19:01 40° SSE 02:21:58 10° ENE
STARLINK-1333 3.6 02:16:48 13° SW 02:19:19 40° SSE 02:22:17 10° ENE
STARLINK-1334 3.6 02:17:07 13° SW 02:19:39 40° SSE 02:22:37 10° ENE
STARLINK-1326 3.6 02:17:28 13° SW 02:20:00 41° SSE 02:22:58 10° ENE
STARLINK-1323 3.6 02:17:47 13° SW 02:20:20 41° SSE 02:23:18 10° ENE
Cosmos 1980 Rocket 3.4 02:15:31 10° S 02:20:35 37° ESE 02:25:43 10° NE
STARLINK-1338 3.9 02:17:39 12° SW 02:20:35 41° SSE 02:23:53 10° ENE
STARLINK-1192 3.7 02:16:29 10° WNW 02:20:39 86° NNE 02:24:48 10° ESE
STARLINK-1349 3.5 02:18:06 13° SW 02:20:40 41° SSE 02:23:38 10° ENE
STARLINK-1336 3.5 02:18:28 13° SW 02:21:02 41° SSE 02:24:01 10° ENE
STARLINK-1331 3.5 02:18:45 13° SW 02:21:20 41° SSE 02:24:19 10° ENE
CRYOSAT 2 4.4 02:16:37 10° N 02:21:32 74° W 02:26:24 10° SSW
STARLINK-1344 3.5 02:19:05 13° SW 02:21:41 42° SSE 02:24:40 10° ENE
STARLINK-1343 3.5 02:19:25 12° SW 02:22:01 42° SSE 02:25:00 10° ENE
STARLINK-1346 3.5 02:19:43 12° SW 02:22:23 42° SSE 02:25:24 10° ENE
STARLINK-1328 3.5 02:20:05 12° SW 02:22:43 42° SSE 02:25:42 10° ENE
STARLINK-1354 3.5 02:20:22 12° SW 02:23:01 43° SSE 02:26:01 10° ENE
CZ-4B R/B 4.3 02:21:10 10° ESE 02:23:09 16° ENE 02:25:07 10° NNE
STARLINK-1211 4.1 02:19:16 10° WNW 02:23:09 39° SW 02:27:00 10° SE
Cosmos 1328 3.9 02:19:22 10° SSW 02:23:20 64° WNW 02:27:19 10° N
STARLINK-1347 3.5 02:20:44 12° SW 02:23:24 43° SSE 02:26:23 10° ENE
STARLINK-1357 3.5 02:21:01 12° SW 02:23:42 43° SSE 02:26:41 10° ENE
STARLINK-1335 3.5 02:21:22 12° SW 02:24:02 43° SSE 02:27:02 10° ENE
STARLINK-1327 3.5 02:21:41 12° SW 02:24:23 43° SSE 02:27:22 10° ENE
STARLINK-1371 3.8 02:21:31 12° SW 02:24:36 44° SSE 02:27:57 10° ENE
STARLINK-1340 3.5 02:22:01 12° SW 02:24:44 44° SSE 02:27:44 10° ENE
STARLINK-1356 3.4 02:22:21 12° SW 02:25:04 44° SSE 02:28:04 10° ENE
ERS-2 2.1 02:21:43 10° SSE 02:25:22 78° WSW 02:29:04 10° NNW
STARLINK-1345 3.4 02:22:41 12° SW 02:25:24 44° SSE 02:28:24 10° ENE
ERBS 3.6 02:22:16 10° NW 02:25:30 45° NNE 02:28:43 10° E
STARLINK-1244 3.6 02:21:27 10° WNW 02:25:37 89° NE 02:29:46 10° ESE
STARLINK-1355 3.4 02:22:59 12° SW 02:25:44 44° SSE 02:28:44 10° ENE
STARLINK-1321 3.4 02:23:18 12° SW 02:26:03 45° SSE 02:29:04 10° ENE
STARLINK-1358 3.4 02:23:39 12° SW 02:26:25 45° SSE 02:29:26 10° ENE
STARLINK-1341 3.7 02:23:29 11° SW 02:26:39 45° SSE 02:30:00 10° ENE
STARLINK-1332 3.4 02:23:57 12° SW 02:26:44 45° SSE 02:29:44 10° ENE
STARLINK-1348 3.4 02:24:18 11° SW 02:27:06 45° SSE 02:30:06 10° ENE
IRS-1C 4.2 02:21:48 10° NNE 02:27:11 85° WNW 02:32:31 10° SSW
STARLINK-1330 3.4 02:24:36 11° SW 02:27:24 46° SSE 02:30:26 10° ENE
STARLINK-1363 3.4 02:24:56 11° SW 02:27:45 46° SSE 02:30:46 10° ENE
STARLINK-1337 3.4 02:25:15 11° SW 02:28:05 46° SSE 02:31:06 10° ENE
STARLINK-1245 4.1 02:24:17 10° WNW 02:28:07 37° SW 02:31:56 10° SSE
STARLINK-1342 3.4 02:25:35 11° SW 02:28:26 46° SSE 02:31:27 10° ENE
STARLINK-1374 3.7 02:25:26 11° SW 02:28:41 46° SSE 02:32:04 10° ENE
STARLINK-1364 3.4 02:25:55 11° SW 02:28:46 47° SSE 02:31:47 10° ENE
STARLINK-1376 3.4 02:26:15 11° SW 02:29:07 47° SSE 02:32:08 10° ENE
STARLINK-1360 3.4 02:26:30 11° SW 02:29:23 47° SSE 02:32:25 10° ENE
STARLINK-1361 3.3 02:26:56 11° SW 02:29:49 47° SSE 02:32:51 10° ENE
CZ-4B R/B 4.3 02:25:17 10° N 02:30:01 39° WNW 02:34:50 10° SW
STARLINK-1367 3.4 02:27:10 11° SW 02:30:05 48° SSE 02:33:10 10° ENE
STARLINK-1366 3.3 02:27:33 11° SW 02:30:28 48° SSE 02:33:29 10° ENE
STARLINK-1138 3.6 02:26:26 10° WNW 02:30:35 87° SSW 02:34:44 10° ESE
STARLINK-1339 3.7 02:27:26 10° SW 02:30:46 48° SSE 02:34:09 10° ENE
SL-4 R/B 2.4 02:26:19 10° W 02:31:09 84° N 02:35:46 10° E
Cosmos 2297 Rocket 3.0 02:26:28 10° NW 02:31:21 31° WSW 02:36:12 10° SSW
STARLINK-1377 3.6 02:29:28 10° SW 02:32:51 49° SSE 02:36:16 10° ENE
STARLINK-1233 4.2 02:29:17 10° WNW 02:33:03 34° SW 02:36:49 10° SSE
STARLINK-1203 3.6 02:29:14 10° WNW 02:33:27 85° SSW 02:37:40 10° ESE
STARLINK-1353 3.6 02:31:20 10° SW 02:34:42 50° SSE 02:38:06 10° ENE
Cosmos 2082 3.9 02:29:47 10° NW 02:35:17 52° WSW 02:40:43 10° S
STARLINK-1143 3.6 02:31:25 10° WNW 02:35:34 84° SSW 02:39:43 10° ESE
STARLINK-1375 3.5 02:33:10 10° SW 02:36:34 52° SSE 02:39:58 10° ENE
STARLINK-1204 4.3 02:34:19 10° W 02:38:01 32° SW 02:41:43 10° SSE
Cosmos 540 Rocket 3.8 02:33:34 10° SSW 02:38:40 69° ESE 02:43:47 10° NNE
ATLAS CENTAUR R/B 3.3 02:35:20 10° W 02:38:40 22° NNW 02:41:52 10° NNE
STARLINK-1350 3.5 02:35:33 10° SW 02:38:57 54° SSE 02:42:22 10° ENE
FALCON 9 DEB 3.1 02:35:56 10° WSW 02:39:24 89° SSE 02:42:53 10° ENE
STARLINK-1241 3.6 02:36:23 10° WNW 02:40:33 80° SSW 02:44:41 10° ESE
Cosmos 1455 3.8 02:38:19 10° NW 02:40:58 19° W 02:43:37 10° SW
STARLINK-29 3.2 02:37:56 10° W 02:41:08 71° NNW 02:44:19 10° ENE
STARLINK-1352 3.5 02:37:55 10° SW 02:41:22 56° SSE 02:44:51 10° ENE
CZ-2D R/B 3.7 02:37:28 10° NNE 02:41:34 73° ESE 02:45:45 10° S
Landsat 5 3.8 02:37:47 10° SSE 02:42:17 86° ENE 02:46:51 10° NNW
Cosmos 1825 Rocket 4.3 02:38:48 10° SW 02:42:50 38° WNW 02:46:54 10° N
STARLINK-1238 4.4 02:39:18 10° W 02:42:57 30° SW 02:46:34 10° SSE
Cosmos 2278 4.1 02:37:33 10° SSW 02:43:06 63° ESE 02:48:43 10° NE
USA 234 4.4 02:37:22 10° ENE 02:43:11 33° SE 02:48:59 10° SSW
STARLINK-1368 3.4 02:40:05 10° SW 02:43:33 58° SSE 02:47:01 10° ENE
Meteor 1-28 Rocket 3.4 02:41:34 10° S 02:45:16 51° W 02:48:59 10° NNW
Meteor 1-11 4.3 02:39:41 10° SSW 02:45:20 78° WNW 02:50:58 10° N
STARLINK-1369 3.4 02:42:00 10° SW 02:45:27 59° SSE 02:48:54 10° ENE
STARLINK-1239 3.6 02:41:22 10° WNW 02:45:31 77° SSW 02:49:39 10° ESE
SL-16 R/B 4.0 02:42:01 10° SW 02:46:04 18° W 02:50:08 10° NW
Cosmos 2263 Rocket 3.0 02:41:47 10° NNW 02:47:23 58° NE 02:52:53 10° SE
Cosmos 2074 Rocket 4.1 02:42:27 10° SSW 02:48:45 76° W 02:55:06 10° N
